Wind_Speed
22 18 16 14 12 12 11 11 10 10 10 11 12 13 13 12 11 9 6 11 12 10 9 6 5 5 5 6 6 5 6 6 6 5 5 5 4 3 2 2 3 3 2 2 2 3 5 7 8 8 7 7 7 8 9 8 6 4 4 7 9 8 5 6 12 17 15 10 9 11 10 9 9 10 10 11 12 13 13 15 15 14 12 13 13
22 20 17 15 13 13 12 11 10 10 11 12 14 14 14 14 13 12 9 11 12 12 9 7 7 8 7 7 7 7 7 7 7 6 4 4 4 3 2 1 1 2 2 2 2 4 4 6 7 8 7 6 5 5 5 6 5 6 8 10 10 9 5 4 9 14 15 12 9 9 9 6 7 9 8 8 10 12 11 12 14 14 13 12 12
22 21 19 17 14 14 14 11 10 10 12 13 14 15 15 16 16 15 12 11 13 13 9 7 9 9 8 8 8 7 8 8 8 6 4 3 3 3 3 3 2 2 2 3 4 4 4 5 7 8 7 6 4 4 5 5 6 9 11 11 10 9 6 3 4 9 12 13 10 8 8 6 6 7 6 5 8 9 9 10 12 13 13 11 12
23 23 21 18 16 16 15 12 9 10 12 14 15 15 16 16 16 15 11 11 13 12 9 8 11 10 9 8 8 8 8 8 8 7 5 3 2 2 2 3 3 3 4 4 5 5 5 5 7 8 7 6 4 4 5 7 9 12 13 12 10 9 8 5 4 5 9 12 11 8 7 7 7 7 6 5 5 6 7 8 9 11 11 10 11
23 24 23 20 18 17 16 12 9 10 12 14 15 16 16 14 13 12 10 10 12 11 9 11 12 11 9 8 8 9 8 7 7 7 6 4 2 0 1 2 3 4 5 5 5 5 5 6 7 8 7 6 5 4 5 7 10 13 13 12 10 9 8 7 5 5 7 9 11 10 8 7 8 8 7 4 3 3 5 6 7 9 9 8 10
23 25 25 23 20 19 17 13 10 10 12 13 14 15 15 13 12 11 8 9 12 11 11 12 11 10 10 9 9 8 6 5 5 5 5 3 1 1 2 3 5 5 6 7 7 6 6 7 8 8 8 7 7 6 5 6 8 11 12 11 10 9 8 7 6 6 6 8 10 11 9 8 8 9 8 6 4 3 5 5 6 8 7 7 8
24 25 26 24 22 20 18 14 12 11 11 12 13 13 14 13 12 11 7 8 12 14 13 11 10 10 11 10 8 7 5 4 4 4 4 2 1 2 3 4 5 6 7 7 7 7 7 7 7 8 8 8 9 8 6 6 6 8 9 8 7 7 6 6 5 5 5 6 8 10 10 9 9 9 9 8 7 4 4 4 5 6 5 5 7
23 24 26 26 25 22 18 15 14 12 12 12 12 12 13 13 11 10 7 8 14 15 14 12 11 11 11 10 8 7 7 6 4 3 3 2 1 3 4 4 4 5 6 7 6 6 6 6 6 7 7 8 10 9 8 7 6 6 6 5 4 2 2 3 2 2 2 3 6 9 10 11 10 10 9 9 8 6 3 3 4 4 4 6 6
22 22 25 26 26 23 19 17 16 14 13 13 13 13 12 12 10 9 7 9 16 16 13 12 11 11 12 11 10 9 8 7 5 3 2 1 1 3 4 5 4 4 5 5 5 5 5 5 6 7 7 8 9 10 9 8 6 6 6 4 2 0 0 1 1 1 0 1 4 7 9 11 12 12 11 9 8 5 3 2 3 4 6 7 6
23 23 23 24 25 24 22 19 18 17 15 14 14 13 12 12 11 9 8 10 16 16 13 12 12 13 13 12 11 10 9 8 7 5 3 2 1 1 4 5 5 4 3 3 4 4 4 5 6 7 7 8 8 8 9 9 7 7 6 5 3 2 2 2 2 2 2 1 3 6 7 9 11 12 12 10 7 5 4 3 3 5 8 8 7
24 24 23 22 22 24 23 22 20 19 16 15 15 14 13 13 12 10 10 11 14 15 14 13 13 12 12 12 11 10 9 9 8 6 5 4 3 1 3 4 5 4 3 2 2 3 4 5 6 7 7 7 8 8 8 8 7 6 6 5 4 2 2 1 1 1 1 1 4 5 6 7 9 11 11 10 8 7 6 5 6 7 9 9 8
25 25 24 22 22 23 24 23 22 20 18 17 16 16 15 14 13 12 13 14 15 15 14 14 12 10 9 9 10 9 9 9 9 8 7 6 4 3 2 4 5 4 3 3 2 3 4 5 5 6 6 6 7 7 7 7 6 5 4 3 2 1 1 1 2 3 3 3 4 6 6 7 8 10 10 10 9 8 7 8 9 9 9 9 10
28 28 26 25 24 23 24 25 24 22 20 18 17 17 16 16 15 14 14 15 17 16 15 14 13 10 8 8 8 8 9 9 10 9 8 7 6 4 3 3 4 5 5 4 2 3 4 4 4 3 4 5 5 5 5 5 5 5 4 3 3 3 3 4 4 5 5 4 3 5 6 6 8 9 9 9 9 8 8 9 9 9 9 8 9
31 30 29 28 27 25 24 25 24 23 21 20 19 19 18 17 17 15 15 17 19 17 16 15 13 12 9 8 9 9 9 9 10 10 10 9 7 6 4 3 2 4 5 4 3 2 3 3 2 2 3 4 4 3 3 4 4 4 4 4 4 5 5 6 6 7 7 6 4 4 6 7 7 9 10 10 9 7 7 7 6 6 7 7 7
32 32 31 31 30 29 27 26 25 24 23 22 21 20 19 18 18 17 16 17 19 18 17 16 14 12 11 10 10 10 9 9 10 10 11 10 9 7 6 5 4 2 2 3 3 2 2 3 2 2 2 3 3 3 2 2 3 4 4 5 6 6 7 8 8 9 8 8 7 7 8 8 9 10 11 10 8 5 5 6 5 3 4 5 6
34 33 32 33 33 32 30 28 27 25 25 24 22 21 21 19 18 18 17 17 18 19 18 17 15 13 11 11 11 11 10 10 10 11 11 11 10 9 8 7 7 5 3 3 2 2 2 3 2 2 2 2 2 2 2 2 3 4 4 5 6 7 8 9 9 10 9 9 8 8 8 8 8 10 10 9 8 6 5 6 4 1 2 3 3
34 34 34 35 36 35 33 30 29 26 26 26 25 23 22 20 19 19 18 18 19 19 19 18 16 13 12 12 12 12 11 11 11 11 12 12 11 11 10 9 9 8 5 4 3 2 2 2 2 1 2 2 2 2 2 1 2 3 4 5 6 7 9 10 10 10 10 10 9 8 8 7 7 8 9 8 7 5 4 5 3 1 1 1 2
34 35 35 36 37 37 35 33 31 28 27 26 26 24 22 21 20 19 19 19 20 20 19 18 17 15 12 12 13 12 12 12 11 11 12 12 12 12 11 11 10 9 7 5 4 4 4 3 3 3 2 1 2 2 2 1 3 4 4 4 6 7 8 9 9 9 9 9 9 9 8 7 7 7 7 7 7 6 5 4 4 2 1 2 2
33 34 35 37 38 37 36 34 32 30 28 27 26 25 23 22 21 19 19 19 19 20 21 19 18 16 13 12 13 13 13 13 12 12 12 12 13 12 12 11 10 8 7 6 6 6 6 6 5 4 3 2 1 1 1 2 4 5 4 4 5 6 7 7 8 8 7 8 9 9 8 8 8 7 6 6 7 8 8 7 6 4 3 3 1
32 32 34 36 37 37 37 36 34 32 29 27 26 25 24 23 22 21 19 19 19 20 22 21 19 18 15 14 14 14 14 14 13 13 13 12 12 12 12 11 9 8 7 6 7 8 8 8 7 6 5 3 1 0 1 1 2 3 4 5 5 5 5 5 5 5 5 6 8 9 9 9 8 7 7 6 6 7 8 7 5 3 3 1 1
32 32 32 33 35 37 37 37 36 33 30 28 26 26 26 24 23 22 20 20 20 21 23 23 21 20 18 16 15 15 15 15 14 14 14 13 13 13 12 10 9 8 7 6 7 8 9 8 7 7 6 5 3 2 1 1 1 0 3 4 4 3 3 3 3 3 3 4 6 8 9 9 7 6 6 7 7 7 6 5 4 3 3 4 4
32 33 32 32 33 35 35 36 37 35 32 30 28 28 27 26 25 24 22 21 21 22 23 24 23 22 20 18 16 16 16 16 16 15 15 15 14 14 13 11 10 9 8 6 6 8 9 9 8 7 7 6 5 4 3 2 2 2 2 3 3 3 3 3 2 2 2 3 5 5 6 6 5 5 7 8 10 10 10 9 8 7 7 7 7
30 32 32 31 30 28 30 34 37 37 35 34 32 31 30 28 27 26 25 24 23 22 24 25 25 24 23 21 19 17 17 17 17 17 16 16 16 15 14 13 11 10 8 6 5 7 9 10 9 9 8 8 7 5 5 4 4 3 3 3 4 4 6 6 4 3 2 3 3 3 4 4 4 5 6 8 10 11 11 11 10 10 9 9 9
27 29 29 30 29 29 31 34 36 37 38 37 36 34 33 31 29 28 28 27 25 24 24 25 26 26 25 24 22 19 18 18 18 18 18 18 18 17 16 15 13 11 10 8 6 6 7 8 9 9 9 9 8 7 6 5 5 4 4 4 4 5 6 7 6 4 2 2 2 2 3 4 5 6 7 8 9 10 10 10 11 11 10 10 11
22 23 24 26 28 30 32 34 33 35 38 40 39 38 36 34 32 31 30 29 28 26 25 25 27 28 27 25 24 21 20 19 19 19 19 19 19 19 18 17 16 13 12 10 7 6 6 7 7 8 9 9 9 9 8 7 6 5 5 5 5 5 6 7 6 5 3 2 1 1 2 4 6 6 7 8 9 9 9 10 10 11 11 11 12
20 20 21 23 25 26 28 30 30 31 36 41 42 40 39 37 35 34 32 31 30 28 27 26 27 28 28 27 25 23 22 20 20 21 21 20 21 21 20 20 19 17 15 13 10 8 8 9 8 7 8 8 9 10 9 8 7 7 6 6 6 6 6 6 6 6 4 2 1 1 2 4 5 6 6 8 9 9 9 9 10 10 11 11 11
21 21 21 21 24 26 28 29 29 29 34 40 43 43 41 39 37 36 35 33 32 30 29 28 28 28 28 28 27 26 24 22 21 21 22 23 22 22 22 22 22 20 18 15 14 12 11 11 10 10 9 9 10 10 10 10 9 9 8 8 7 7 7 7 7 6 5 3 2 1 1 3 5 6 7 8 9 9 9 10 9 9 10 10 10
22 22 21 21 23 25 27 29 28 29 33 39 41 42 42 41 40 39 37 35 34 32 30 29 28 28 27 28 28 27 27 25 24 23 23 23 23 23 23 24 23 22 20 18 16 15 15 14 14 13 12 10 11 12 12 12 11 11 10 10 9 8 8 8 8 8 6 5 4 3 3 4 5 7 7 8 9 10 10 10 9 8 8 8 8
23 23 22 23 23 24 26 28 28 29 32 36 39 39 39 38 38 38 37 36 35 32 30 28 26 26 26 27 27 27 26 24 23 22 22 22 22 22 22 22 22 22 21 20 19 18 18 17 17 16 14 12 12 13 14 14 13 12 12 12 10 10 9 9 9 9 8 7 6 5 5 5 6 8 9 8 9 10 11 9 8 8 7 7 6
25 24 25 25 25 25 26 28 28 29 31 34 37 38 38 38 37 37 36 35 34 33 30 27 24 24 25 25 25 24 22 20 19 20 21 21 22 22 22 21 21 21 22 22 22 22 21 20 18 17 16 14 14 14 15 15 15 14 14 14 12 11 11 10 10 10 9 7 7 7 6 7 8 9 9 9 9 11 12 10 7 7 7 5 4
31 30 28 28 28 27 27 28 29 30 31 33 36 38 39 39 39 38 38 37 36 33 30 26 24 24 25 25 23 22 21 20 20 21 21 20 20 22 23 23 23 23 23 24 25 24 24 22 20 19 18 17 16 15 15 16 16 15 15 15 14 13 12 12 12 11 9 8 8 7 7 8 9 8 9 10 10 11 12 11 9 7 7 6 5
33 34 32 31 31 30 30 30 29 30 33 35 37 39 40 40 39 38 38 39 39 36 32 28 25 25 25 24 24 23 22 22 21 20 20 20 19 20 22 24 24 24 25 25 26 26 25 24 22 21 20 19 18 17 16 17 17 16 16 17 16 15 13 12 12 11 10 9 9 7 7 9 10 9 9 10 11 12 13 13 11 9 8 7 6
27 30 31 32 33 32 32 32 32 32 33 36 38 39 40 41 40 38 38 39 40 39 36 32 29 27 25 25 25 24 22 22 21 20 20 20 19 18 20 22 24 26 26 27 28 27 27 26 24 23 22 21 19 18 18 17 17 17 18 18 17 15 13 13 13 12 11 10 9 7 7 9 11 11 10 10 11 12 13 14 13 11 10 10 8
22 25 27 30 32 33 33 35 36 35 35 36 38 39 40 40 39 38 39 40 41 40 39 36 34 31 29 28 27 25 23 23 22 21 20 20 21 20 19 20 23 26 28 29 29 28 28 27 26 24 23 22 20 20 19 19 18 18 19 18 17 16 15 15 15 14 11 10 9 8 8 9 11 12 11 10 12 13 14 14 14 13 12 11 10
18 20 24 28 32 33 35 39 41 40 38 37 38 39 39 40 39 40 40 40 40 40 39 37 35 33 31 30 30 27 25 24 23 22 21 20 21 22 22 23 25 27 30 31 31 30 30 29 27 26 24 23 22 21 21 20 19 19 19 19 18 17 17 18 17 14 12 10 10 10 9 10 11 12 12 13 14 15 15 14 14 14 13 12 10
17 18 22 27 31 33 36 39 42 41 38 37 38 39 39 40 40 41 42 41 41 40 39 38 36 33 30 30 31 30 28 26 25 24 22 21 22 25 27 28 28 29 31 32 32 32 31 30 29 27 26 25 24 23 22 22 21 20 20 19 18 18 19 19 17 14 12 11 11 11 11 11 11 12 13 14 15 15 15 14 14 14 14 13 11
17 17 19 22 26 30 32 34 38 40 39 37 38 39 40 43 43 43 43 44 43 41 40 40 39 37 34 31 31 31 31 29 27 25 24 23 25 27 30 31 31 31 31 32 32 32 32 31 30 29 28 27 26 25 24 23 23 22 22 21 19 20 20 19 16 14 13 12 11 12 12 12 11 12 13 14 15 15 16 16 15 15 14 14 14
19 18 18 20 23 27 29 29 32 37 38 37 37 36 37 41 45 45 45 45 44 42 42 41 41 40 38 34 32 32 33 32 31 30 29 29 31 32 33 34 34 34 33 32 31 31 31 30 30 30 29 29 28 27 26 25 24 24 23 22 21 21 21 19 17 15 15 14 13 14 14 13 13 12 13 14 15 16 16 16 16 15 15 16 16
22 20 20 19 20 24 27 28 27 29 32 38 40 38 35 38 42 45 45 46 46 45 43 43 43 42 40 37 35 34 35 36 36 35 35 36 37 37 36 37 37 37 37 36 34 32 31 30 30 30 30 30 29 29 28 27 26 25 24 24 23 23 22 21 19 18 17 16 16 16 16 15 14 13 14 15 15 16 16 16 16 15 15 15 16
22 22 21 20 19 21 24 27 27 27 29 35 39 38 37 38 40 42 43 45 47 48 46 45 45 43 41 40 39 37 37 38 39 39 39 39 39 39 40 40 40 40 40 40 38 36 34 32 31 30 30 30 30 30 29 28 27 27 26 26 26 25 23 22 20 19 18 17 17 17 18 17 16 16 16 16 16 16 16 16 15 15 14 15 16
22 21 20 19 20 21 24 27 28 27 28 30 32 33 35 36 37 39 42 44 46 47 48 48 47 44 41 41 41 40 39 40 40 40 41 41 41 42 42 42 42 42 42 42 41 39 37 35 33 32 31 30 31 31 31 30 29 29 28 28 27 27 25 23 22 21 20 19 19 19 19 19 18 18 17 17 17 17 16 16 16 15 15 16 17
23 23 22 20 20 22 25 27 27 26 26 28 29 32 34 34 33 35 41 45 46 46 46 47 48 47 45 44 43 42 42 42 41 42 43 43 43 43 43 43 43 42 42 41 41 41 39 37 36 34 33 32 32 32 32 33 32 31 31 30 30 29 28 26 24 23 21 21 20 20 20 20 20 19 18 18 19 18 17 16 16 16 16 17 18
24 24 24 22 20 20 21 22 24 26 27 27 27 28 31 34 33 33 36 42 47 48 45 44 44 46 47 47 45 45 44 44 44 44 44 44 44 44 44 44 43 42 42 41 42 42 42 41 39 37 35 34 33 33 33 33 34 34 34 33 32 31 30 28 26 25 24 23 23 22 22 22 21 20 20 20 21 21 19 18 18 17 17 18 18
25 24 23 22 22 21 20 21 22 23 25 26 26 27 29 33 35 34 34 37 42 46 46 43 41 43 46 48 48 48 47 46 46 46 46 45 46 45 45 44 44 43 43 43 43 43 44 44 43 41 39 37 35 35 34 34 34 35 36 36 35 34 32 30 28 26 24 24 24 24 24 23 23 23 22 22 23 23 22 20 19 19 18 19 19
25 23 21 21 21 20 20 20 21 21 22 23 25 27 28 31 33 35 35 36 40 44 46 44 41 42 45 49 50 50 48 47 47 47 47 46 46 45 45 45 44 44 43 43 43 43 45 45 45 44 43 40 39 37 36 36 35 36 36 37 37 37 35 32 29 27 26 26 26 25 25 25 25 25 25 24 25 25 24 23 21 20 20 20 20
22 21 21 21 21 21 20 19 21 22 23 23 24 26 27 29 31 33 35 37 39 40 41 42 42 42 44 47 50 51 49 48 47 47 47 47 47 46 45 45 45 45 44 43 43 44 43 43 44 44 44 43 42 40 39 38 37 37 37 37 38 38 37 35 33 31 30 29 27 26 26 26 26 26 26 26 26 26 26 25 24 23 21 21 20
20 21 22 22 23 23 22 21 21 21 21 22 23 24 26 28 30 32 33 36 38 38 38 39 40 41 43 45 49 51 50 49 48 47 47 47 47 47 47 46 46 46 45 44 44 44 43 42 42 42 43 43 43 43 42 40 39 39 39 38 38 38 38 37 37 35 33 32 30 29 28 28 27 27 27 27 27 27 27 27 27 25 24 23 22
20 21 22 22 22 22 23 22 22 21 21 21 22 23 24 26 29 31 32 34 36 38 38 38 37 37 39 43 46 49 51 50 48 47 47 47 47 47 47 47 47 46 46 46 45 44 43 43 42 42 41 41 42 42 42 42 42 41 40 40 39 39 38 38 38 37 35 34 33 32 31 30 29 29 28 28 28 28 28 28 28 28 27 26 24
22 22 22 21 20 20 20 20 20 21 22 22 23 23 23 24 26 29 32 34 35 36 38 38 36 35 36 39 42 46 49 52 51 49 47 46 46 46 47 48 48 47 47 47 46 45 44 44 43 42 42 42 39 38 39 41 42 42 42 41 40 39 38 38 39 38 37 37 36 36 35 34 33 31 30 29 29 29 29 29 29 29 29 28 27
23 22 22 22 22 22 22 21 21 20 20 20 21 22 23 23 24 26 29 33 35 36 36 38 37 35 35 36 38 40 43 48 51 51 50 47 46 45 47 48 48 48 48 47 47 46 45 45 44 44 44 43 41 39 38 39 39 39 40 40 39 38 38 38 38 38 38 38 38 38 38 37 36 35 33 32 31 31 30 30 30 29 30 31 30
22 22 22 22 23 22 23 23 23 21 20 20 20 21 22 24 25 25 27 30 32 33 34 36 36 36 35 36 37 38 40 42 44 47 49 48 46 45 46 47 48 48 48 47 47 46 46 46 46 45 45 45 43 42 40 38 37 36 37 36 34 34 36 38 38 38 38 37 37 38 39 39 39 38 36 35 34 33 32 32 31 31 31 31 32
Wind_Direction
219 218 220 222 224 226 226 225 228 241 246 247 249 247 251 252 257 276 244 196 196 199 195 205 223 222 229 234 231 239 254 270 283 297 293 263 244 252 239 155 171 191 192 188 145 150 178 181 179 182 190 198 196 200 213 220 219 206 181 166 163 166 181 173 144 134 134 136 129 120 116 112 97 80 69 63 60 52 47 45 43 41 42 40 39
220 219 220 221 222 223 227 227 230 239 248 253 252 251 255 256 261 274 255 210 201 205 204 208 224 229 228 231 237 250 266 280 289 295 276 240 227 227 226 196 182 175 163 180 160 144 162 179 180 182 193 205 197 185 196 211 197 163 159 165 161 158 172 179 151 143 143 146 148 141 136 133 115 101 86 68 60 52 45 42 38 38 43 42 39
225 222 221 220 219 221 225 227 230 239 248 255 254 251 254 257 262 268 255 218 204 213 220 210 210 220 224 227 232 245 266 279 282 280 263 234 228 220 216 222 218 194 181 183 171 153 153 171 178 181 192 205 198 166 155 162 156 145 150 161 159 151 155 171 157 154 152 150 154 160 157 152 136 119 103 76 66 57 48 43 38 35 41 45 44
229 225 222 220 218 221 225 226 230 240 250 256 257 256 257 258 262 260 243 213 208 219 222 196 194 211 222 224 232 247 265 271 264 264 268 265 246 225 213 214 204 191 184 181 174 163 157 162 166 172 190 205 193 160 146 146 147 146 149 154 157 152 153 159 160 166 165 158 155 159 163 162 152 135 120 98 79 65 54 49 42 36 38 47 49
232 228 225 221 219 222 226 224 226 239 251 257 262 264 264 262 260 251 225 207 213 215 197 185 194 213 223 231 249 263 268 260 246 250 263 271 277 323 129 162 161 156 158 158 158 156 155 154 152 157 179 200 188 160 145 148 153 154 153 153 156 156 158 166 171 175 177 169 159 154 154 161 163 158 150 141 119 78 59 50 40 37 41 49 54
234 231 228 224 221 224 226 223 221 233 249 258 265 268 268 266 260 246 219 207 211 198 181 188 204 218 230 245 264 279 281 257 247 252 258 268 307 34 96 122 131 132 134 134 133 132 137 141 138 142 161 181 181 167 152 150 158 163 164 163 165 167 169 171 173 175 179 176 166 160 157 156 163 172 172 169 164 109 70 48 30 32 41 51 57
235 233 231 227 224 226 228 225 221 228 243 255 263 266 266 264 255 241 224 209 204 192 186 197 208 218 237 256 272 290 296 277 271 272 260 263 356 76 110 119 124 126 125 123 123 124 127 132 133 136 150 167 173 171 163 159 160 162 164 167 172 178 180 174 170 175 180 175 171 170 169 163 163 172 178 181 182 157 98 62 39 41 54 67 67
234 234 234 231 228 227 229 228 224 226 239 249 256 258 257 256 242 231 232 211 199 198 197 203 213 223 239 256 271 286 289 281 282 286 268 252 106 110 124 126 126 130 128 121 118 121 125 131 136 138 144 157 167 170 167 165 167 161 155 159 167 177 181 176 180 192 176 167 174 178 179 177 172 166 167 175 181 174 142 88 65 72 98 101 84
232 233 234 234 232 229 229 231 227 226 235 244 251 253 252 250 237 231 239 206 195 205 212 212 221 231 237 250 266 275 273 265 266 272 269 259 121 122 135 137 132 131 133 125 120 121 127 134 137 136 137 145 161 171 169 166 170 166 157 163 188 264 311 283 288 281 324 118 157 168 174 181 183 176 170 175 183 181 156 115 83 105 129 121 91
232 232 234 236 235 232 231 233 231 228 232 240 249 252 251 249 239 235 241 209 196 209 224 223 228 235 241 252 261 261 254 248 250 252 252 260 267 144 151 154 147 137 129 123 122 122 127 130 126 126 131 137 148 163 168 170 176 173 169 180 212 257 281 297 311 310 319 41 136 149 159 173 183 188 189 193 199 191 159 137 118 134 149 142 105
235 234 237 240 239 235 233 234 234 232 232 238 246 250 250 250 243 238 246 232 210 215 228 232 234 237 241 249 249 244 239 236 240 245 242 245 258 235 168 168 163 151 137 126 126 125 122 121 118 120 125 130 136 144 153 161 168 172 176 187 203 226 260 296 349 9 5 112 137 145 162 173 178 187 194 197 198 192 173 152 135 141 164 163 130
239 238 240 242 243 240 236 236 237 235 234 236 244 249 250 251 246 242 248 241 225 223 231 236 239 238 236 237 237 233 230 229 234 239 237 235 248 258 210 186 178 171 172 170 152 127 116 112 112 117 123 126 128 132 136 139 141 145 149 153 154 136 86 72 77 83 85 101 132 148 163 175 175 179 186 190 196 199 185 162 140 133 153 165 149
240 241 241 242 243 242 239 237 238 238 236 236 241 246 250 251 248 245 247 240 229 229 234 237 243 246 237 232 233 229 226 226 229 235 234 232 242 253 242 205 184 180 189 196 177 134 119 116 110 110 118 119 116 119 127 129 126 124 121 117 111 98 88 84 85 90 88 83 109 141 147 157 166 170 173 180 192 197 182 165 147 125 127 144 150
239 241 243 244 244 243 240 239 239 241 239 236 238 244 248 250 249 247 244 237 230 232 236 240 246 249 243 236 233 229 226 225 226 229 233 234 237 244 252 251 210 178 184 198 198 157 136 136 126 114 117 111 100 99 109 116 115 110 108 108 100 92 91 90 89 91 95 96 107 126 130 138 151 155 156 163 177 185 171 162 154 129 115 111 124
240 241 243 245 245 243 241 240 241 242 241 238 237 240 246 248 247 245 243 236 231 234 238 241 247 251 248 240 232 229 230 228 225 225 229 232 233 233 244 259 256 228 195 201 208 182 171 182 165 122 114 104 92 90 93 97 98 92 89 91 91 91 95 98 98 99 103 108 112 117 123 134 148 152 152 156 162 165 164 167 169 150 108 83 95
240 241 243 245 245 244 242 241 241 242 242 240 237 238 243 246 244 244 243 236 230 232 236 240 245 250 250 241 230 228 231 231 229 226 225 228 230 231 239 251 254 252 242 219 205 172 171 192 181 132 113 105 99 104 109 100 90 83 82 88 93 100 103 103 104 105 105 105 106 109 116 129 149 160 164 168 166 162 173 186 197 185 80 62 91
241 242 244 245 245 244 243 242 242 242 243 242 239 238 241 244 243 243 243 237 230 230 235 240 244 248 250 241 229 228 232 232 232 230 226 225 227 231 239 248 250 249 246 234 216 188 176 196 202 175 125 111 108 122 141 132 93 91 95 100 107 112 111 107 106 104 101 100 97 98 105 116 138 160 175 187 186 171 171 196 223 242 45 18 128
241 243 244 244 244 245 244 243 243 243 245 244 242 240 240 243 243 243 245 241 234 233 237 240 244 247 247 240 230 227 232 235 234 233 230 225 225 231 240 246 246 246 241 232 220 206 198 202 206 205 182 127 107 119 133 115 102 105 104 106 116 121 118 112 109 104 100 99 95 92 96 103 114 130 151 179 192 184 182 217 248 259 346 352 102
241 244 245 244 243 244 245 244 244 245 247 247 245 242 241 243 243 243 246 246 239 236 237 240 244 247 245 239 232 227 228 233 236 236 234 229 227 231 237 239 236 235 230 221 213 205 199 199 204 205 200 191 124 106 105 91 100 108 109 108 121 131 127 121 116 107 99 96 93 88 84 87 94 99 108 143 178 190 203 226 247 264 287 300 107
240 243 243 242 242 245 247 246 245 247 249 248 247 245 242 242 242 242 244 245 241 237 238 240 243 246 245 240 235 231 228 231 235 237 236 234 234 235 237 236 231 229 228 222 213 206 204 204 204 202 200 203 220 250 49 66 86 101 111 121 128 134 137 138 131 114 95 84 84 82 75 71 75 83 90 109 150 179 200 217 233 262 282 271 157
241 240 240 240 241 244 247 248 247 248 250 250 249 246 243 241 241 241 242 243 241 238 239 241 242 244 245 242 237 234 231 230 233 236 237 237 239 242 243 240 234 231 235 235 222 210 208 210 209 204 202 204 210 225 267 275 271 99 133 147 155 157 164 171 154 127 102 76 70 71 68 62 65 81 97 106 116 129 144 153 151 150 141 127 130
244 241 238 239 240 241 245 249 249 249 249 249 248 246 243 242 242 241 241 242 242 240 240 241 241 242 243 243 239 235 232 231 231 233 236 237 239 243 246 244 238 234 237 245 237 216 207 208 211 209 208 209 209 214 232 242 248 251 201 185 194 210 210 205 189 155 114 70 51 54 62 65 75 96 112 118 118 119 121 121 123 128 130 126 124
246 242 239 240 243 246 250 250 249 249 249 247 247 246 243 240 240 240 240 240 241 242 242 241 240 241 242 242 240 236 233 232 231 230 233 236 239 242 244 244 243 242 242 244 240 225 212 207 209 210 210 213 215 217 226 233 238 241 228 214 213 214 210 207 205 195 135 74 50 44 65 92 117 126 131 133 131 129 128 124 120 119 119 119 117
246 244 243 243 246 251 252 248 248 250 250 247 246 244 242 240 238 239 240 239 239 241 243 242 240 240 241 242 241 238 234 232 232 230 230 233 237 240 242 242 243 245 246 241 232 224 216 209 209 212 214 217 221 223 227 231 234 235 233 229 225 214 207 208 212 208 175 104 79 64 87 117 136 141 144 147 146 141 137 132 125 118 112 112 112
244 246 247 247 248 248 246 244 246 249 250 247 245 242 241 239 237 237 238 239 239 239 241 243 242 241 242 242 242 241 238 233 231 231 230 230 233 236 239 242 243 243 245 245 236 217 206 201 202 208 214 220 225 229 232 234 235 234 232 231 230 222 214 215 219 217 199 151 120 114 119 131 142 149 157 163 162 156 148 140 133 123 113 109 111
244 246 248 249 248 244 238 236 239 242 243 244 244 243 242 240 238 237 238 238 239 240 240 242 243 242 243 244 243 243 241 236 232 232 231 230 230 231 234 238 241 242 243 243 239 225 214 211 212 214 218 224 229 233 236 238 236 235 233 233 235 234 227 226 229 224 213 198 167 144 145 146 147 152 163 170 174 175 168 157 147 136 124 115 113
243 243 244 243 241 238 233 232 235 237 237 238 240 241 242 241 240 239 238 238 238 240 240 241 242 242 243 244 243 242 242 238 233 231 232 231 230 229 230 232 236 239 240 241 239 234 230 226 224 224 227 230 231 232 234 235 235 233 231 233 237 237 233 232 233 227 220 227 241 193 177 175 160 155 161 166 167 175 181 177 167 151 138 128 122
244 242 241 240 239 239 235 233 235 237 235 235 237 238 239 240 240 241 242 241 240 241 241 243 244 245 245 244 243 241 241 239 235 233 234 235 233 231 232 232 234 236 237 239 238 236 236 235 232 231 233 233 231 230 230 232 234 232 232 233 235 235 233 233 231 226 222 231 241 231 214 202 180 168 168 165 158 163 175 180 173 158 145 135 129
249 246 243 239 239 239 235 233 236 238 236 235 236 238 240 243 245 246 248 247 246 247 248 250 252 251 249 248 246 244 243 242 239 237 238 240 239 239 239 239 239 238 236 236 237 235 236 237 236 236 237 237 236 234 230 231 232 232 233 234 233 231 232 232 230 228 227 231 238 238 232 220 200 183 176 168 157 161 172 180 176 167 156 146 141
254 251 248 244 242 239 234 233 236 238 237 235 236 237 240 245 249 253 254 253 252 251 252 256 259 258 255 253 253 253 255 257 253 246 242 241 241 242 243 243 243 241 237 235 235 236 238 240 241 240 239 238 238 236 232 231 232 231 232 234 232 230 230 232 232 231 229 227 230 232 231 224 211 193 179 170 163 167 178 185 186 183 173 160 156
260 255 250 248 246 242 238 237 237 237 236 236 236 237 238 241 246 251 253 254 254 253 254 258 261 259 256 255 254 255 259 262 258 251 247 245 243 241 240 239 238 238 237 236 236 237 239 241 241 241 239 237 237 235 233 232 231 230 232 234 233 230 229 231 233 229 220 216 220 223 222 221 218 203 185 175 171 176 185 190 193 194 189 179 181
262 257 252 250 249 246 242 240 239 238 237 236 235 237 239 241 244 247 249 250 250 250 250 253 257 257 255 254 252 252 253 254 254 250 244 241 241 240 240 237 235 235 236 237 238 240 242 243 243 243 241 239 237 235 233 232 231 230 231 233 234 232 228 230 234 225 209 209 218 221 220 223 223 214 195 184 183 187 193 197 199 202 200 194 192
271 265 260 256 252 250 247 245 242 240 238 237 237 237 239 242 244 246 247 247 246 245 244 245 250 253 253 251 250 249 249 250 253 251 243 235 231 233 237 237 234 232 233 235 236 238 241 242 243 243 243 241 240 238 237 234 232 231 232 233 235 234 229 229 231 223 210 210 219 224 227 230 228 221 208 198 196 197 200 203 204 206 207 205 201
286 277 271 264 259 255 253 250 248 245 243 241 241 241 242 244 246 247 247 245 243 243 242 242 243 245 246 245 245 246 246 245 245 247 243 233 225 226 232 235 233 231 232 235 236 237 238 239 239 239 239 240 239 237 237 235 232 231 232 233 235 233 226 223 224 222 215 215 223 229 235 237 232 226 219 214 209 206 205 206 209 210 211 211 209
298 287 277 269 264 262 259 253 250 248 246 244 244 244 245 247 247 246 247 246 246 247 247 246 245 244 243 241 240 240 242 242 240 242 241 233 225 224 228 230 230 228 228 231 233 234 235 236 236 235 236 236 236 235 234 234 232 232 232 232 233 229 222 218 218 217 216 220 226 231 237 240 235 226 219 218 218 215 211 211 214 213 214 217 216
307 295 281 267 261 262 263 257 251 248 248 249 249 249 249 248 247 246 246 247 248 251 253 253 251 248 246 243 241 239 239 239 238 238 238 233 228 227 228 229 230 230 230 230 231 232 233 233 233 233 234 234 235 235 234 234 233 233 234 235 232 226 222 219 216 213 215 221 226 231 235 237 233 225 219 219 221 221 218 219 220 217 215 219 222
310 303 292 278 269 269 270 263 254 249 247 247 249 250 249 248 247 246 246 247 248 251 253 254 252 248 245 244 243 240 238 237 237 238 238 234 231 230 230 231 233 234 234 234 234 235 235 234 233 232 231 232 233 234 234 235 235 234 236 237 233 227 224 223 219 214 216 222 226 231 235 235 232 228 226 225 224 222 220 222 223 220 218 221 225
309 304 297 289 281 277 274 266 256 251 248 246 247 250 251 248 245 243 244 246 248 250 252 252 252 250 248 247 245 241 238 235 235 235 235 233 232 231 232 233 235 237 239 239 239 239 240 239 237 235 233 232 233 233 234 234 235 235 237 238 234 228 225 224 222 220 221 225 229 233 238 239 237 235 233 231 229 226 224 224 223 220 218 219 222
308 305 299 290 281 274 271 266 261 256 251 247 247 249 251 250 246 243 243 245 247 249 250 251 251 253 254 253 248 242 237 234 233 231 230 229 230 232 233 235 236 238 240 242 242 243 243 242 241 239 237 236 235 235 235 234 235 235 237 238 235 230 225 223 222 222 223 226 229 234 237 239 241 241 239 236 234 230 227 226 224 221 219 219 221
309 306 301 294 285 276 268 263 261 257 249 246 247 249 250 250 249 247 246 246 248 249 250 250 251 254 256 255 251 245 240 237 236 235 232 231 232 233 234 236 237 239 240 241 243 244 244 244 243 242 241 239 237 237 236 236 235 236 236 237 238 237 233 228 226 225 226 227 231 235 237 238 240 241 241 240 238 235 231 229 227 224 222 220 222
309 306 303 300 294 284 272 263 261 259 253 251 254 256 255 254 255 254 251 248 248 250 251 252 253 255 257 256 255 252 247 243 242 240 238 237 237 236 237 238 240 241 242 243 243 244 245 245 244 243 242 241 239 238 237 237 236 236 236 236 238 240 239 235 232 230 230 231 233 235 237 238 239 240 240 240 239 237 233 231 229 227 223 222 225
305 302 301 301 297 288 277 269 265 264 262 259 260 261 259 258 258 258 254 249 246 246 249 252 254 255 256 256 257 256 252 249 246 244 243 243 242 242 242 243 245 246 247 248 248 248 247 247 246 245 243 242 241 239 238 237 236 236 236 236 238 239 241 239 237 234 233 233 234 236 237 237 238 238 238 237 237 236 233 231 229 227 223 223 226
303 298 296 296 293 288 284 278 272 269 268 266 265 264 261 258 257 257 256 253 249 246 247 251 253 254 254 255 256 255 253 250 248 246 246 246 246 246 246 247 248 250 252 253 253 252 251 250 250 249 247 245 244 242 241 239 238 237 238 238 239 240 242 242 240 238 236 234 235 236 237 237 237 236 235 234 234 233 232 230 229 228 226 225 227
307 300 295 294 292 288 285 284 281 275 273 273 272 268 265 261 258 254 253 252 250 247 248 251 253 252 253 253 252 252 252 251 249 247 247 248 248 248 249 250 250 252 253 254 255 255 254 253 253 252 251 250 248 246 245 244 242 240 240 240 241 242 243 243 242 240 238 236 236 236 237 237 236 235 234 233 232 232 231 230 229 228 227 226 227
307 302 296 294 295 291 285 284 284 281 276 272 270 268 267 265 262 257 254 252 249 246 247 250 252 252 252 252 252 252 253 253 252 250 250 250 250 251 251 251 251 252 252 254 255 255 255 256 256 255 254 253 251 249 247 246 244 243 241 241 242 243 244 245 246 244 242 240 240 239 239 239 238 235 234 233 232 232 232 232 232 231 229 229 229
303 302 299 297 296 293 288 286 287 285 280 273 270 269 270 268 265 261 259 256 253 250 249 251 252 251 250 251 252 253 254 254 254 253 253 253 254 254 254 253 253 252 253 254 254 255 256 258 258 258 257 256 254 252 250 248 247 245 243 242 242 244 245 247 248 247 246 245 244 243 242 242 241 240 238 236 235 234 233 233 233 233 232 232 233
299 301 300 298 295 293 290 287 285 283 280 278 277 277 276 274 270 267 263 260 257 252 249 249 251 252 251 251 253 254 255 255 256 256 256 257 257 257 256 255 255 255 254 254 254 255 256 257 258 259 259 259 257 255 253 251 249 247 246 244 243 243 244 245 246 247 247 247 246 245 245 244 244 243 242 240 238 236 235 233 233 233 233 234 233
300 297 295 294 294 294 291 288 284 280 279 280 282 282 282 279 275 271 268 264 259 254 250 249 249 250 252 254 254 254 255 256 257 258 258 259 259 260 259 258 258 258 258 256 256 255 255 255 256 258 259 259 259 258 257 255 252 249 248 246 244 242 242 243 245 245 246 246 245 245 245 245 245 245 245 243 241 238 236 235 234 233 233 233 232
299 295 292 290 290 291 291 289 287 285 284 283 282 281 280 280 277 273 269 266 262 259 257 255 250 247 249 253 254 254 254 255 256 257 258 259 260 260 261 261 261 261 260 259 259 259 258 257 257 257 258 259 259 260 260 259 256 253 250 247 245 243 242 242 243 244 245 245 245 244 244 244 245 245 245 245 244 242 240 238 237 235 234 233 232
295 293 292 290 287 286 287 287 286 287 288 287 284 281 280 280 279 275 270 266 263 261 261 261 257 253 251 251 251 251 253 255 255 256 257 259 260 261 261 261 261 261 261 262 262 262 261 259 258 258 258 259 259 258 258 259 260 258 253 249 247 245 244 243 242 243 244 244 244 244 244 243 244 244 244 244 244 244 242 241 239 237 235 234 232
290 291 293 294 292 290 289 287 284 283 284 286 288 288 285 283 281 278 273 268 265 263 263 264 263 261 259 256 254 253 254 256 257 257 257 258 260 261 260 261 262 262 262 263 263 263 263 262 261 260 259 259 259 258 258 258 259 258 256 252 248 245 244 244 243 242 243 243 243 243 243 243 243 243 243 243 243 242 242 241 240 239 237 235 234
Height
1543 1544 1545 1546 1546 1547 1547 1547 1547 1547 1547 1547 1547 1546 1546 1546 1546 1547 1547 1546 1546 1547 1547 1546 1546 1545 1544 1544 1543 1543 1543 1542 1542 1542 1541 1541 1540 1540 1540 1540 1539 1539 1538 1538 1538 1538 1538 1537 1537 1536 1536 1536 1536 1535 1535 1534 1535 1535 1535 1535 1535 1535 1536 1535 1535 1536 1539 1540 1540 1540 1541 1541 1541 1540 1539 1538 1538 1537 1537 1536 1535 1534 1533 1533 1532
1542 1543 1544 1544 1545 1545 1546 1546 1546 1546 1546 1546 1546 1546 1545 1545 1545 1545 1546 1546 1546 1546 1546 1546 1546 1545 1544 1544 1543 1543 1542 1542 1541 1541 1541 1540 1540 1540 1540 1540 1539 1539 1539 1538 1538 1538 1538 1538 1537 1537 1537 1536 1536 1536 1535 1534 1534 1534 1535 1535 1535 1536 1536 1536 1535 1536 1537 1539 1540 1540 1540 1541 1540 1540 1540 1539 1539 1538 1537 1537 1536 1535 1535 1534 1533
1540 1541 1542 1543 1543 1544 1545 1545 1545 1545 1545 1545 1545 1545 1545 1544 1544 1544 1545 1545 1545 1545 1546 1546 1545 1545 1544 1544 1543 1543 1542 1541 1541 1540 1540 1540 1540 1540 1540 1539 1539 1539 1539 1538 1538 1538 1538 1538 1538 1537 1537 1537 1536 1536 1536 1535 1535 1535 1535 1536 1536 1536 1536 1536 1536 1536 1537 1538 1539 1540 1540 1540 1540 1540 1540 1540 1539 1539 1538 1538 1537 1536 1536 1535 1534
1538 1539 1540 1541 1542 1543 1543 1543 1543 1543 1544 1544 1544 1544 1544 1544 1543 1543 1543 1544 1544 1545 1545 1545 1545 1544 1544 1543 1543 1542 1542 1541 1540 1540 1540 1540 1540 1540 1540 1539 1539 1538 1538 1538 1538 1538 1538 1538 1538 1538 1538 1537 1537 1537 1536 1536 1536 1535 1535 1536 1536 1536 1536 1537 1537 1537 1537 1538 1539 1539 1540 1540 1540 1540 1540 1540 1539 1539 1539 1539 1538 1538 1537 1536 1535
1536 1537 1538 1540 1540 1541 1542 1542 1542 1542 1543 1543 1543 1543 1543 1543 1542 1542 1542 1543 1543 1544 1544 1544 1544 1543 1543 1543 1543 1542 1542 1541 1540 1539 1539 1539 1539 1539 1539 1539 1538 1538 1538 1538 1538 1538 1538 1538 1538 1538 1538 1538 1537 1537 1537 1537 1537 1536 1536 1536 1536 1536 1537 1537 1537 1538 1538 1538 1538 1539 1540 1540 1540 1540 1540 1540 1540 1539 1539 1539 1539 1538 1538 1537 1536
1533 1535 1537 1538 1539 1540 1540 1541 1541 1541 1542 1542 1542 1542 1541 1541 1541 1541 1542 1542 1543 1543 1543 1543 1543 1543 1543 1543 1542 1542 1541 1540 1540 1539 1539 1539 1539 1539 1539 1538 1538 1538 1538 1538 1538 1538 1538 1538 1538 1538 1538 1538 1538 1537 1537 1537 1537 1537 1537 1537 1537 1537 1537 1537 1538 1538 1538 1538 1539 1539 1539 1540 1540 1540 1540 1540 1540 1540 1539 1539 1539 1539 1539 1538 1537
1531 1532 1534 1536 1537 1538 1539 1540 1540 1540 1541 1541 1541 1541 1540 1540 1540 1540 1541 1541 1542 1542 1542 1542 1542 1542 1542 1542 1542 1541 1541 1540 1540 1539 1539 1539 1539 1539 1539 1539 1538 1538 1538 1538 1538 1538 1538 1538 1538 1538 1538 1538 1538 1538 1538 1538 1538 1537 1537 1537 1538 1538 1538 1538 1538 1538 1539 1539 1539 1540 1540 1540 1540 1540 1540 1540 1540 1540 1540 1540 1539 1539 1539 1539 1538
1528 1530 1532 1533 1535 1536 1538 1539 1539 1540 1540 1540 1540 1540 1539 1539 1539 1540 1540 1541 1541 1541 1541 1541 1542 1542 1542 1542 1542 1541 1541 1540 1539 1539 1539 1539 1539 1539 1539 1539 1539 1538 1538 1538 1538 1538 1538 1538 1538 1538 1538 1538 1538 1539 1539 1539 1538 1538 1538 1538 1538 1538 1538 1538 1538 1538 1539 1539 1539 1539 1540 1540 1540 1540 1540 1541 1541 1541 1541 1541 1540 1540 1540 1539 1539
1526 1528 1530 1531 1533 1535 1537 1538 1538 1539 1539 1539 1539 1539 1539 1539 1539 1539 1539 1540 1540 1540 1540 1541 1541 1541 1542 1541 1541 1541 1541 1540 1539 1539 1539 1539 1539 1539 1539 1539 1539 1539 1539 1539 1539 1539 1539 1539 1538 1538 1538 1538 1539 1539 1539 1539 1539 1539 1538 1538 1538 1538 1538 1538 1538 1538 1538 1538 1539 1539 1539 1540 1540 1540 1540 1541 1541 1541 1541 1541 1541 1541 1540 1540 1539
1524 1525 1527 1529 1531 1533 1535 1536 1537 1537 1538 1538 1538 1538 1538 1538 1538 1538 1539 1539 1540 1539 1539 1540 1540 1541 1541 1541 1541 1541 1540 1540 1539 1540 1540 1539 1539 1539 1539 1539 1539 1539 1539 1539 1539 1539 1539 1539 1539 1539 1539 1539 1539 1539 1539 1539 1539 1539 1539 1539 1539 1539 1538 1538 1538 1538 1538 1538 1538 1539 1539 1539 1540 1540 1541 1541 1541 1541 1541 1541 1541 1541 1541 1540 1540
1522 1523 1525 1527 1529 1531 1533 1534 1535 1536 1536 1537 1538 1537 1537 1537 1538 1538 1538 1539 1539 1538 1538 1539 1539 1540 1540 1540 1540 1540 1540 1540 1539 1539 1540 1539 1539 1539 1539 1539 1539 1539 1539 1539 1539 1539 1539 1539 1539 1539 1539 1539 1539 1539 1539 1539 1539 1539 1539 1539 1539 1539 1538 1538 1538 1538 1538 1538 1538 1538 1539 1539 1540 1540 1540 1540 1540 1541 1542 1542 1541 1541 1541 1541 1541
1520 1521 1523 1525 1527 1529 1531 1532 1534 1535 1535 1536 1537 1537 1537 1537 1537 1537 1537 1538 1538 1537 1538 1538 1538 1539 1540 1540 1540 1540 1540 1540 1539 1539 1539 1539 1539 1539 1539 1539 1539 1539 1539 1539 1539 1540 1539 1540 1539 1539 1540 1540 1540 1539 1539 1539 1539 1539 1539 1539 1539 1539 1538 1538 1538 1538 1538 1538 1538 1538 1539 1539 1540 1540 1540 1540 1540 1541 1542 1542 1542 1542 1542 1542 1542
1519 1520 1521 1523 1525 1527 1529 1530 1532 1533 1534 1535 1535 1536 1536 1536 1536 1536 1537 1537 1537 1536 1537 1537 1538 1538 1539 1539 1539 1539 1539 1539 1539 1539 1539 1539 1539 1539 1539 1539 1540 1540 1539 1539 1540 1540 1540 1540 1540 1540 1540 1540 1540 1540 1540 1539 1539 1539 1539 1539 1539 1539 1538 1538 1538 1538 1538 1538 1538 1539 1539 1539 1540 1540 1540 1541 1541 1541 1542 1543 1542 1542 1542 1542 1542
1517 1519 1520 1522 1523 1525 1527 1528 1530 1531 1533 1533 1534 1534 1534 1535 1535 1535 1536 1536 1535 1535 1536 1536 1537 1538 1538 1538 1539 1539 1539 1539 1539 1539 1538 1539 1539 1539 1539 1539 1539 1540 1539 1539 1540 1540 1540 1540 1540 1540 1540 1540 1540 1540 1540 1540 1540 1539 1539 1539 1539 1539 1539 1539 1539 1539 1539 1539 1539 1539 1539 1540 1540 1540 1541 1541 1541 1542 1542 1543 1543 1543 1543 1542 1542
1516 1517 1519 1520 1522 1523 1525 1526 1528 1529 1531 1532 1532 1533 1533 1534 1534 1534 1535 1535 1535 1535 1535 1536 1536 1537 1537 1538 1538 1538 1538 1538 1538 1538 1538 1538 1539 1539 1539 1539 1539 1539 1540 1540 1540 1540 1540 1540 1541 1541 1541 1540 1540 1540 1540 1540 1540 1540 1540 1539 1539 1539 1539 1539 1539 1540 1540 1540 1540 1540 1540 1540 1541 1541 1541 1542 1542 1542 1543 1543 1543 1543 1543 1542 1542
1514 1515 1517 1518 1519 1521 1523 1524 1526 1527 1529 1530 1530 1531 1532 1532 1533 1533 1533 1534 1534 1534 1534 1535 1535 1536 1537 1537 1537 1537 1538 1538 1538 1538 1538 1538 1538 1538 1538 1538 1539 1539 1539 1540 1540 1540 1540 1540 1541 1541 1541 1541 1541 1541 1541 1541 1541 1540 1540 1540 1540 1540 1540 1540 1540 1540 1541 1541 1541 1541 1541 1541 1541 1542 1542 1542 1543 1543 1543 1543 1543 1543 1543 1543 1543
1512 1514 1515 1516 1517 1519 1521 1522 1524 1525 1526 1527 1528 1530 1530 1531 1532 1532 1532 1533 1533 1533 1533 1533 1534 1535 1536 1536 1536 1537 1537 1537 1537 1537 1537 1538 1538 1538 1538 1538 1538 1539 1539 1540 1540 1540 1540 1540 1541 1541 1541 1541 1541 1541 1541 1541 1541 1541 1541 1541 1541 1541 1541 1541 1541 1541 1541 1541 1541 1541 1541 1542 1542 1542 1542 1542 1543 1543 1543 1544 1544 1544 1544 1543 1543
1510 1511 1512 1514 1515 1517 1519 1520 1521 1523 1524 1525 1526 1528 1529 1529 1530 1530 1531 1531 1532 1532 1532 1532 1533 1534 1535 1535 1535 1536 1536 1536 1536 1536 1536 1537 1537 1538 1538 1538 1538 1539 1539 1539 1540 1540 1540 1540 1541 1541 1541 1541 1542 1542 1542 1542 1542 1542 1541 1541 1541 1541 1541 1541 1541 1541 1541 1542 1542 1542 1542 1542 1542 1542 1542 1542 1542 1543 1544 1544 1544 1544 1544 1544 1543
1507 1508 1510 1511 1513 1515 1516 1518 1519 1520 1521 1522 1523 1525 1527 1528 1528 1529 1529 1530 1530 1531 1531 1531 1532 1533 1534 1534 1534 1535 1535 1535 1535 1535 1535 1536 1537 1537 1537 1538 1538 1538 1539 1539 1539 1540 1540 1540 1541 1541 1541 1541 1542 1542 1542 1542 1542 1542 1542 1542 1542 1542 1542 1542 1542 1542 1542 1542 1542 1543 1543 1542 1542 1542 1542 1542 1543 1543 1543 1544 1544 1544 1544 1544 1544
1505 1506 1508 1509 1511 1513 1514 1515 1516 1517 1518 1520 1521 1523 1524 1525 1526 1527 1527 1528 1529 1530 1530 1530 1530 1531 1532 1533 1533 1533 1534 1534 1534 1534 1534 1535 1535 1536 1536 1537 1537 1538 1538 1538 1539 1539 1540 1540 1540 1541 1541 1541 1541 1542 1542 1542 1542 1543 1543 1542 1542 1543 1542 1542 1542 1542 1542 1543 1543 1543 1543 1543 1543 1543 1543 1543 1543 1543 1543 1544 1544 1544 1544 1544 1544
1503 1504 1505 1507 1509 1512 1513 1513 1514 1515 1516 1517 1519 1520 1521 1523 1524 1524 1525 1526 1527 1527 1528 1528 1529 1530 1531 1531 1532 1532 1533 1533 1533 1533 1533 1534 1534 1534 1535 1536 1537 1537 1537 1538 1538 1539 1539 1539 1540 1540 1541 1541 1541 1542 1542 1542 1542 1543 1543 1543 1543 1543 1543 1543 1543 1543 1543 1543 1543 1544 1544 1544 1544 1543 1543 1543 1543 1543 1544 1544 1544 1544 1544 1544 1544
1501 1502 1503 1504 1506 1510 1513 1513 1512 1513 1514 1515 1516 1518 1519 1520 1521 1522 1523 1524 1525 1525 1526 1526 1527 1528 1529 1529 1530 1531 1531 1531 1532 1532 1532 1532 1533 1533 1534 1535 1535 1536 1536 1537 1537 1538 1538 1539 1539 1540 1540 1541 1541 1542 1542 1542 1542 1542 1543 1543 1543 1543 1543 1543 1543 1543 1543 1543 1543 1544 1544 1544 1544 1544 1544 1544 1544 1544 1544 1544 1544 1545 1544 1544 1544
1499 1500 1501 1502 1503 1505 1508 1509 1509 1510 1512 1512 1514 1515 1516 1518 1519 1520 1521 1521 1522 1523 1523 1524 1525 1526 1526 1527 1528 1529 1529 1530 1530 1531 1531 1531 1531 1532 1533 1533 1534 1535 1535 1536 1536 1537 1537 1538 1538 1539 1540 1541 1541 1541 1542 1542 1542 1542 1542 1543 1543 1543 1543 1543 1543 1543 1543 1544 1544 1544 1544 1545 1545 1545 1545 1545 1545 1545 1545 1545 1545 1545 1545 1545 1545
1497 1497 1498 1499 1500 1501 1503 1504 1506 1507 1509 1510 1511 1512 1513 1515 1516 1517 1518 1519 1520 1520 1521 1522 1522 1523 1523 1525 1525 1526 1527 1528 1528 1529 1529 1530 1530 1531 1531 1532 1533 1534 1534 1535 1536 1536 1536 1537 1538 1538 1539 1540 1540 1541 1541 1542 1542 1542 1542 1542 1542 1542 1543 1543 1543 1543 1543 1544 1544 1544 1544 1545 1545 1545 1546 1546 1546 1546 1546 1546 1546 1546 1546 1546 1546
1494 1495 1495 1496 1497 1499 1500 1501 1503 1504 1505 1507 1507 1508 1510 1511 1512 1513 1515 1516 1517 1517 1518 1519 1519 1520 1521 1522 1523 1524 1525 1526 1526 1527 1528 1528 1529 1529 1530 1530 1531 1532 1533 1534 1535 1535 1536 1536 1537 1537 1538 1539 1540 1540 1541 1541 1541 1541 1541 1542 1542 1542 1542 1543 1543 1543 1543 1544 1544 1544 1544 1545 1545 1545 1546 1546 1547 1547 1547 1547 1547 1547 1547 1547 1547
1491 1492 1493 1494 1495 1496 1497 1499 1500 1501 1501 1502 1503 1505 1506 1507 1508 1510 1511 1512 1513 1514 1515 1516 1516 1517 1518 1519 1520 1521 1523 1523 1524 1525 1525 1526 1527 1528 1528 1529 1529 1531 1532 1533 1534 1535 1535 1535 1536 1536 1537 1538 1539 1539 1540 1540 1540 1541 1541 1541 1541 1542 1542 1542 1543 1543 1543 1543 1544 1544 1544 1545 1545 1545 1546 1546 1547 1547 1547 1547 1548 1547 1548 1548 1548
1489 1489 1490 1491 1491 1492 1493 1495 1496 1497 1497 1498 1500 1501 1502 1503 1505 1506 1507 1508 1509 1510 1511 1512 1513 1514 1514 1515 1517 1518 1519 1521 1522 1522 1523 1524 1524 1525 1526 1527 1528 1528 1530 1531 1532 1533 1534 1534 1535 1535 1536 1536 1537 1538 1538 1539 1539 1540 1540 1540 1541 1541 1541 1542 1542 1542 1543 1543 1544 1544 1544 1544 1545 1545 1546 1546 1547 1547 1547 1548 1548 1548 1548 1548 1549
1486 1486 1487 1488 1488 1489 1490 1491 1491 1492 1493 1494 1495 1497 1498 1499 1500 1501 1502 1503 1504 1506 1507 1508 1509 1510 1511 1512 1514 1515 1516 1517 1518 1519 1520 1521 1522 1523 1524 1525 1526 1527 1528 1529 1530 1531 1532 1533 1533 1534 1534 1535 1535 1536 1537 1537 1538 1538 1539 1539 1540 1540 1541 1541 1541 1542 1542 1542 1543 1544 1544 1544 1545 1545 1545 1546 1546 1547 1547 1548 1548 1549 1549 1549 1549
1482 1483 1483 1484 1484 1485 1486 1487 1487 1488 1489 1490 1491 1492 1493 1494 1495 1496 1497 1498 1500 1502 1503 1504 1506 1507 1508 1509 1510 1511 1512 1513 1515 1517 1518 1519 1520 1521 1522 1523 1524 1525 1526 1528 1528 1529 1530 1530 1531 1531 1532 1533 1534 1534 1535 1536 1536 1537 1537 1538 1538 1539 1539 1540 1540 1541 1541 1541 1542 1543 1543 1544 1544 1545 1545 1545 1546 1546 1547 1547 1548 1549 1549 1549 1549
1480 1479 1479 1479 1480 1481 1481 1482 1483 1484 1485 1486 1487 1488 1490 1491 1491 1492 1493 1495 1496 1498 1500 1501 1503 1504 1505 1507 1508 1508 1509 1511 1513 1515 1517 1518 1519 1520 1521 1522 1523 1524 1525 1526 1527 1527 1527 1527 1528 1529 1529 1530 1531 1532 1533 1534 1534 1535 1536 1536 1537 1538 1538 1539 1539 1540 1540 1540 1541 1542 1542 1543 1544 1544 1545 1545 1546 1546 1547 1547 1548 1548 1548 1549 1549
1478 1477 1476 1475 1476 1476 1477 1478 1479 1480 1481 1482 1483 1485 1486 1487 1488 1489 1490 1491 1493 1495 1497 1499 1500 1501 1502 1503 1505 1506 1507 1509 1510 1512 1514 1515 1516 1517 1518 1520 1521 1522 1523 1524 1524 1525 1525 1525 1526 1526 1527 1528 1528 1529 1530 1531 1532 1533 1534 1535 1535 1536 1537 1537 1538 1539 1539 1539 1540 1541 1541 1542 1543 1543 1544 1545 1545 1546 1546 1547 1547 1548 1548 1548 1549
1476 1475 1474 1474 1473 1473 1473 1474 1475 1476 1477 1478 1480 1481 1482 1484 1485 1486 1487 1488 1490 1492 1494 1496 1497 1498 1498 1500 1501 1503 1504 1505 1507 1509 1511 1513 1514 1515 1516 1517 1518 1519 1520 1521 1522 1522 1523 1523 1524 1524 1525 1526 1526 1528 1529 1529 1530 1531 1532 1533 1533 1534 1535 1536 1537 1537 1538 1538 1539 1540 1540 1541 1542 1542 1543 1544 1545 1545 1546 1546 1547 1547 1548 1548 1548
1472 1471 1472 1472 1472 1472 1472 1471 1472 1472 1473 1474 1475 1477 1478 1479 1480 1482 1483 1484 1486 1488 1490 1492 1494 1494 1495 1496 1497 1499 1501 1503 1504 1506 1508 1510 1511 1512 1513 1514 1515 1517 1517 1518 1518 1519 1520 1520 1521 1522 1523 1524 1525 1526 1527 1527 1528 1529 1530 1531 1532 1533 1534 1535 1535 1536 1536 1537 1538 1538 1539 1540 1541 1541 1542 1543 1544 1544 1545 1545 1546 1547 1547 1548 1548
1467 1467 1467 1468 1469 1470 1471 1470 1469 1469 1470 1470 1471 1472 1474 1475 1476 1478 1480 1481 1482 1483 1485 1487 1489 1490 1491 1492 1494 1496 1498 1500 1501 1502 1504 1506 1508 1509 1510 1511 1512 1513 1514 1514 1515 1516 1517 1517 1518 1519 1520 1521 1523 1524 1525 1525 1526 1527 1528 1529 1530 1531 1532 1533 1533 1534 1535 1535 1536 1537 1537 1538 1539 1540 1541 1542 1542 1543 1544 1544 1545 1546 1546 1547 1547
1463 1463 1463 1463 1465 1466 1466 1466 1465 1465 1466 1467 1467 1468 1470 1471 1473 1474 1475 1476 1477 1478 1480 1481 1483 1485 1487 1488 1490 1492 1494 1496 1498 1499 1501 1504 1505 1506 1507 1507 1507 1508 1509 1510 1510 1511 1513 1514 1515 1517 1518 1519 1520 1521 1522 1523 1524 1525 1526 1527 1528 1529 1530 1530 1531 1532 1533 1534 1535 1535 1536 1537 1538 1538 1539 1540 1541 1541 1542 1543 1544 1544 1545 1546 1546
1459 1459 1459 1459 1460 1460 1461 1461 1462 1463 1464 1464 1465 1465 1466 1467 1468 1470 1471 1472 1473 1474 1476 1477 1479 1481 1483 1485 1486 1488 1490 1492 1494 1496 1498 1500 1502 1502 1502 1502 1503 1504 1504 1505 1506 1507 1509 1510 1512 1514 1515 1516 1517 1519 1520 1521 1522 1523 1524 1525 1526 1527 1527 1528 1529 1530 1531 1532 1533 1534 1534 1535 1536 1537 1538 1538 1539 1540 1541 1541 1542 1543 1544 1544 1545
1456 1456 1455 1455 1456 1456 1456 1457 1458 1459 1460 1461 1461 1463 1464 1464 1464 1465 1467 1468 1469 1471 1472 1473 1475 1477 1479 1481 1482 1484 1486 1488 1491 1493 1495 1497 1497 1497 1497 1498 1499 1499 1500 1501 1503 1504 1505 1507 1509 1510 1512 1513 1514 1516 1517 1518 1519 1521 1522 1522 1523 1524 1525 1526 1527 1528 1529 1530 1531 1532 1533 1534 1535 1535 1536 1536 1537 1538 1539 1540 1541 1541 1542 1543 1543
1453 1452 1452 1452 1452 1452 1452 1453 1453 1454 1456 1457 1457 1459 1461 1462 1462 1462 1463 1463 1465 1467 1468 1469 1470 1472 1474 1476 1478 1480 1482 1485 1487 1489 1491 1491 1491 1491 1492 1493 1495 1496 1497 1498 1500 1501 1502 1504 1505 1507 1508 1510 1511 1513 1514 1515 1517 1518 1519 1520 1521 1522 1523 1524 1525 1526 1527 1528 1529 1530 1531 1532 1533 1534 1534 1535 1535 1536 1537 1538 1539 1540 1541 1541 1542
1450 1449 1449 1448 1448 1448 1449 1449 1449 1450 1452 1453 1453 1454 1456 1457 1458 1460 1461 1461 1462 1463 1464 1465 1466 1467 1469 1472 1474 1476 1478 1479 1481 1482 1483 1484 1484 1485 1487 1488 1490 1491 1492 1494 1496 1497 1498 1500 1502 1503 1505 1507 1508 1509 1511 1512 1514 1515 1516 1517 1518 1519 1520 1521 1522 1522 1523 1525 1526 1528 1529 1530 1531 1532 1532 1533 1534 1534 1535 1536 1537 1538 1539 1539 1540
1447 1446 1445 1444 1444 1445 1445 1446 1446 1446 1446 1447 1449 1449 1449 1450 1451 1454 1457 1458 1459 1459 1460 1460 1461 1462 1464 1466 1469 1471 1472 1473 1474 1476 1477 1478 1479 1480 1482 1483 1484 1485 1486 1488 1490 1492 1494 1496 1498 1500 1501 1503 1505 1506 1507 1509 1511 1512 1513 1514 1515 1516 1517 1517 1518 1519 1521 1522 1523 1525 1526 1527 1529 1530 1530 1531 1532 1533 1533 1534 1535 1536 1537 1538 1539
1443 1443 1442 1440 1440 1440 1441 1441 1441 1441 1441 1443 1444 1444 1445 1445 1446 1447 1450 1452 1454 1455 1455 1455 1456 1458 1460 1461 1463 1465 1467 1468 1469 1470 1472 1473 1474 1475 1477 1478 1479 1480 1481 1483 1485 1487 1489 1491 1493 1495 1497 1499 1501 1502 1504 1505 1507 1508 1510 1511 1512 1513 1513 1514 1515 1516 1518 1519 1520 1522 1523 1525 1526 1527 1528 1529 1530 1531 1532 1532 1533 1534 1535 1536 1537
1440 1439 1438 1438 1437 1436 1436 1437 1437 1437 1437 1438 1438 1439 1440 1441 1442 1443 1444 1446 1448 1449 1449 1450 1451 1453 1455 1456 1457 1459 1461 1463 1464 1466 1467 1468 1469 1471 1472 1473 1474 1475 1477 1478 1479 1481 1484 1486 1488 1490 1492 1494 1496 1498 1499 1501 1503 1504 1506 1507 1508 1509 1510 1511 1512 1513 1514 1516 1517 1519 1520 1522 1523 1524 1526 1527 1528 1529 1529 1530 1531 1532 1533 1534 1535
1436 1435 1434 1434 1434 1433 1432 1433 1433 1433 1433 1433 1433 1434 1434 1435 1437 1438 1439 1440 1442 1443 1444 1445 1446 1448 1450 1451 1453 1454 1456 1457 1459 1460 1462 1463 1465 1466 1467 1469 1470 1471 1473 1474 1475 1477 1479 1481 1483 1485 1487 1489 1491 1493 1495 1497 1498 1500 1501 1502 1503 1505 1506 1507 1508 1510 1511 1512 1514 1515 1517 1519 1520 1522 1523 1524 1525 1526 1527 1528 1529 1530 1531 1532 1533
1432 1431 1430 1430 1429 1429 1428 1428 1428 1428 1429 1429 1429 1429 1429 1430 1431 1432 1433 1434 1436 1437 1438 1440 1441 1443 1445 1446 1447 1449 1450 1451 1453 1455 1456 1458 1460 1461 1462 1464 1465 1467 1468 1469 1471 1472 1473 1475 1477 1480 1482 1484 1487 1488 1490 1492 1494 1496 1497 1498 1499 1500 1501 1503 1504 1506 1507 1509 1510 1512 1514 1516 1517 1518 1520 1521 1522 1523 1524 1525 1526 1527 1529 1530 1530
1427 1426 1426 1425 1425 1425 1424 1424 1424 1424 1424 1425 1425 1425 1425 1426 1426 1427 1428 1429 1429 1431 1433 1435 1437 1438 1439 1440 1441 1443 1444 1446 1447 1449 1451 1452 1454 1455 1457 1458 1460 1462 1463 1464 1466 1467 1468 1470 1472 1474 1476 1478 1481 1483 1485 1487 1489 1491 1492 1493 1494 1495 1497 1499 1501 1503 1504 1505 1507 1509 1511 1512 1514 1515 1516 1517 1519 1520 1521 1522 1524 1525 1526 1527 1528
1423 1423 1422 1422 1422 1421 1421 1420 1420 1420 1420 1421 1421 1421 1421 1421 1422 1423 1423 1424 1425 1427 1429 1430 1431 1432 1434 1435 1436 1437 1439 1441 1442 1443 1445 1446 1448 1449 1451 1453 1454 1456 1458 1459 1460 1462 1463 1465 1466 1468 1470 1472 1475 1477 1479 1481 1483 1485 1487 1488 1490 1491 1493 1495 1497 1499 1500 1502 1504 1506 1507 1509 1510 1511 1513 1514 1516 1517 1518 1519 1521 1522 1523 1524 1526
1420 1419 1419 1418 1418 1418 1418 1417 1417 1416 1417 1417 1417 1417 1417 1417 1417 1418 1419 1419 1420 1421 1422 1424 1425 1426 1428 1430 1431 1432 1434 1435 1437 1438 1439 1441 1442 1443 1445 1447 1449 1450 1452 1454 1455 1457 1458 1460 1461 1462 1464 1466 1468 1470 1473 1475 1477 1479 1481 1483 1485 1487 1488 1490 1492 1494 1496 1498 1500 1502 1503 1505 1506 1508 1509 1511 1512 1514 1515 1516 1517 1518 1520 1521 1523
1416 1416 1415 1415 1415 1414 1414 1414 1414 1413 1413 1413 1413 1413 1413 1413 1413 1413 1414 1414 1415 1416 1417 1418 1420 1422 1423 1424 1426 1427 1429 1430 1432 1433 1434 1435 1436 1438 1439 1441 1443 1445 1446 1448 1450 1451 1453 1454 1455 1457 1458 1460 1462 1464 1466 1468 1470 1472 1474 1476 1479 1481 1484 1485 1487 1489 1492 1494 1495 1497 1499 1501 1502 1504 1505 1507 1508 1510 1511 1512 1514 1515 1517 1518 1520
1412 1412 1411 1411 1411 1411 1411 1410 1410 1410 1409 1409 1409 1409 1409 1409 1409 1409 1409 1410 1410 1411 1412 1412 1414 1416 1418 1419 1419 1421 1423 1425 1426 1428 1429 1430 1431 1433 1434 1435 1437 1439 1440 1442 1444 1445 1447 1448 1450 1451 1452 1454 1457 1458 1459 1461 1463 1465 1467 1470 1473 1476 1479 1480 1482 1484 1487 1489 1491 1492 1494 1496 1498 1499 1501 1503 1504 1506 1507 1508 1510 1511 1513 1515 1516
1409 1408 1408 1407 1407 1407 1407 1407 1406 1406 1406 1405 1405 1404 1404 1404 1405 1405 1405 1406 1406 1406 1407 1407 1408 1410 1411 1412 1413 1415 1417 1418 1419 1421 1423 1425 1427 1428 1429 1429 1431 1432 1434 1436 1438 1439 1441 1442 1444 1445 1446 1448 1451 1453 1454 1455 1457 1458 1460 1463 1466 1470 1473 1475 1477 1479 1481 1483 1485 1487 1489 1491 1493 1495 1496 1498 1500 1501 1503 1504 1506 1507 1509 1511 1512
1405 1404 1404 1403 1403 1403 1403 1403 1402 1402 1402 1401 1401 1400 1400 1400 1400 1400 1401 1401 1401 1402 1402 1402 1403 1404 1405 1406 1408 1409 1411 1412 1413 1415 1417 1419 1421 1422 1423 1424 1425 1426 1428 1430 1432 1433 1435 1436 1437 1439 1441 1442 1444 1446 1448 1450 1452 1452 1454 1457 1461 1464 1467 1469 1471 1474 1476 1478 1480 1482 1483 1485 1487 1489 1491 1493 1495 1497 1498 1500 1501 1503 1505 1506 1508